[[{"header":{"parameterUnit":"m.s-1","parameterCategory":1,"la1":30.2991,"la2":30.254,"lo1":-89.0895,"lo2":-89.0444,"dy":0.0017,"dx":0.0017,"nx":28,"ny":28,"refTime":"2025-01-03T03:00:00:Z","depth":0,"parameterNumber":2,"parameterNumberName":"U-component_of_WINDS"},"data":[0,0,0,0,0,0,0,0,0,0,0,0,0,0,0,0,0,0,0,0,0,0,0,0,0,0,0,0,0,0,0,0,0,0,0,0,0,0,0,0,0,0,0,0,0,0,0,0,0,0,0,0,0,0,0,0,0,0,-5.6862,-5.6862,0,-5.6877,-5.6877,-5.6877,-5.6798,-5.6796,-5.6794,-5.6792,-5.6804,-5.6807,-5.6809,0,0,0,0,0,0,0,0,0,0,0,0,0,-5.6765,-5.6767,-5.6862,-5.6862,-5.6863,-5.6877,-5.6877,-5.6877,-5.6799,-5.6796,-5.6793,-5.6791,-5.6803,-5.6806,-5.6809,0,0,0,0,0,0,0,0,0,0,0,0,0,-5.6796,-5.6767,-5.6862,-5.6825,-5.6822,-5.6877,-5.6877,-5.6877,-5.6799,-5.6796,-5.6792,-5.6789,-5.6803,-5.6806,-5.681,-5.69,0,0,-5.6821,-5.6822,0,0,0,0,0,0,0,0,-5.6794,-5.6799,-5.683,-5.6828,-5.6824,-5.6832,-5.6847,-5.6885,-5.68,-5.6808,-5.6791,-5.6788,-5.6816,-5.6819,-5.6829,-5.6901,-5.6901,-5.6821,-5.6823,-5.6825,-5.6826,0,0,0,0,0,0,0,-5.6792,-5.6798,-5.6868,-5.6831,-5.6827,-5.6807,-5.6808,-5.6854,-5.6831,-5.6807,-5.6801,-5.6804,-5.6814,-5.6825,-5.6828,-5.6901,-5.6821,-5.6824,-5.6827,-5.6828,-5.7047,-5.7051,0,0,0,0,0,0,-5.6795,-5.6797,-5.6867,-5.6868,-5.6801,-5.6812,-5.6813,-5.6833,-5.683,-5.6826,-5.6807,-5.68,-5.6821,-5.6824,-5.6828,-5.6931,-5.6825,-5.6828,-5.6831,-5.7043,-5.7048,-5.7052,0,0,0,0,0,0,-5.6793,-5.6802,-5.6867,-5.6831,-5.6838,-5.6817,-5.6841,-5.6835,-5.6846,-5.683,-5.6825,-5.6823,-5.6818,-5.6823,-5.6883,-5.6931,-5.683,-5.6833,-5.7039,-5.7045,-5.705,-5.714,0,0,0,0,0,0,-5.6791,-5.6802,-5.6836,-5.6833,-5.684,-5.6921,-5.6844,-5.6838,-5.6853,-5.6845,-5.6844,-5.684,-5.6816,-5.6878,-5.6886,-5.6934,-5.6836,-5.7035,-5.7042,-5.7048,-5.7133,-5.7148,-5.7161,0,0,0,0,0,-5.6788,-5.6861,-5.6838,-5.6847,-5.6883,-5.6924,-5.6928,-5.6899,-5.6858,-5.6891,-5.6881,-5.684,-5.6926,-5.6884,-5.6894,-5.6943,-5.7031,-5.704,-5.7048,-5.7126,-5.7145,-5.7161,0,0,0,0,0,0,-5.6869,-5.686,-5.6834,-5.6909,-5.6918,-5.6911,-5.6952,-5.692,-5.6941,-5.6932,-5.6895,-5.6895,-5.696,-5.6959,-5.6913,-5.703,-5.6971,-5.6981,-5.7028,-5.7045,-5.706,-5.7056,-5.6839,0,0,0,0,0,-5.6896,-5.6932,-5.6921,-5.6988,-5.6994,-5.6973,-5.699,-5.6967,-5.6975,-5.6978,-5.6972,-5.698,-5.7009,-5.7028,-5.7053,-5.7134,-5.7131,-5.7173,-5.7187,-5.7199,-5.7207,-5.7247,-5.7265,-5.7079,-5.7078,-5.7078,0,0,-5.6951,-5.6951,-5.6975,-5.7004,-5.7009,-5.7045,-5.6976,-5.7018,-5.7044,-5.6984,-5.7038,-5.7035,-5.7042,-5.7112,-5.7143,-5.7112,-5.7259,-5.721,-5.7219,-5.722,-5.7257,-5.7275,-5.7291,-5.7084,-5.7083,-5.7082,0,0,-5.7069,-5.7074,-5.7129,-5.7135,-5.7143,-5.7129,-5.7143,-5.7141,-5.7136,-5.7192,-5.7147,-5.7178,-5.7229,-5.7235,-5.7244,-5.7368,-5.733,-5.7378,-5.745,-5.749,-5.7505,-5.7517,-5.7558,-5.7573,-5.7387,-5.7387,-5.7387,0,-5.7136,-5.7189,-5.7161,-5.7205,-5.7218,-5.7169,-5.7223,-5.7231,-5.7246,-5.7256,-5.7224,-5.7286,-5.7287,-5.7356,-5.7387,-5.7398,-5.741,-5.7375,-5.7505,-5.7518,-5.7529,-5.7567,-5.7583,-5.7393,-5.7392,-5.7392,-5.7391,0,-5.7269,-5.7308,-5.7351,-5.7368,-5.7387,-5.7437,-5.7415,-5.7438,-5.7415,-5.7404,-5.7461,-5.7461,-5.7485,-5.7501,-5.7479,-5.7568,-5.7549,-5.7512,-5.745,-5.7553,-5.7588,-5.7602,-5.74,-5.7398,-5.7397,-5.7395,0,0,-5.7434,-5.7437,-5.7453,-5.7459,-5.7466,-5.7494,-5.7543,-5.7567,-5.7586,-5.76,-5.7637,-5.7682,-5.7648,-5.7659,-5.7638,-5.7674,-5.7768,-5.7632,-5.7631,-5.7653,-5.7863,-5.7887,-5.7904,-5.7746,-5.7749,-5.7751,-5.7861,0,-5.7546,-5.7626,-5.7603,-5.7683,-5.7717,-5.7672,-5.7713,-5.7721,-5.7714,-5.7741,-5.7733,-5.7764,-5.7718,-5.7724,-5.7759,-5.7749,-5.7809,-5.7742,-5.7777,-5.7778,-5.7771,-5.7923,-5.7949,-5.8052,-5.7875,-5.7877,-5.7879,0,-5.7686,-5.7706,-5.7789,-5.7791,-5.7804,-5.7841,-5.7861,-5.7889,-5.7898,-5.789,-5.7904,-5.7876,-5.7922,-5.7865,-5.7927,-5.7882,-5.7896,-5.7894,-5.7898,-5.7895,-5.7831,-5.792,-5.8085,-5.8098,-5.7901,-5.7899,-5.7897,0,-5.7792,-5.7841,-5.7896,-5.7904,-5.7908,-5.7935,-5.7938,-5.7944,-5.796,-5.7979,-5.7988,-5.8013,-5.8024,-5.8044,-5.8022,-5.7984,-5.8086,-5.8028,-5.8078,-5.8079,-5.8097,-5.8095,-5.826,-5.8115,-5.8115,-5.8114,-5.8114,0,-5.7916,-5.7968,-5.7944,-5.7977,-5.8034,-5.8009,-5.8066,-5.8063,-5.807,-5.8101,-5.8066,-5.8096,-5.8069,-5.8097,-5.8082,-5.8133,-5.814,-5.8133,-5.8127,-5.8133,-5.8134,-5.8138,-5.8128,-5.8119,-5.8118,-5.8117,-5.8116,0,-5.8041,-5.8028,-5.8085,-5.8085,-5.8087,-5.8128,-5.8128,-5.8158,-5.815,-5.8191,-5.8199,-5.8186,-5.8217,-5.82,-5.8232,-5.8221,-5.8287,-5.8274,-5.8284,-5.8278,-5.8327,-5.8321,-5.8497,-5.8518,-5.8364,-5.8365,-5.8367,0,-5.8119,-5.8158,-5.8163,-5.8182,-5.8187,-5.8219,-5.8236,-5.8213,-5.8232,-5.8246,-5.8275,-5.8304,-5.8325,-5.8378,-5.837,-5.8394,-5.8379,-5.8439,-5.8381,-5.8386,-5.8374,-5.837,-5.8372,-5.8448,-5.845,-5.8452,-5.8453,0,-5.8256,-5.8248,-5.8274,-5.8298,-5.8319,-5.8337,-5.8351,-5.8369,-5.8347,-5.837,-5.8402,-5.8419,-5.8453,-5.8481,-5.8502,-5.8505,-5.8474,-5.8472,-5.8484,-5.8487,-5.8489,-5.8485,-5.831,-5.8466,-5.8465,-5.8464,-5.8463,-5.8463,-5.8357,-5.8388,-5.8397,-5.8427,-5.8436,-5.8451,-5.8479,-5.8476,-5.8502,-5.8528,-5.8514,-5.8551,-5.856,-5.8586,-5.8592,-5.862,-5.8596,-5.8614,-5.8618,-5.8621,-5.8626,-5.849,-5.8625,-5.8624,-5.8624,-5.8624,-5.8623,0,-5.8488,-5.8492,-5.8521,-5.8542,-5.8566,-5.8539,-5.8555,-5.8575,-5.8608,-5.862,-5.8642,-5.8679,-5.8707,-5.8703,-5.8728,-5.8751,-5.8738,-5.8758,-5.8753,-5.8754,-5.8649,-5.8633,-5.8768,-5.8768,-5.8768,-5.8768,-5.8768,-5.8768,-5.8559,-5.861,-5.8604,-5.866,-5.8664,-5.87,-5.8711,-5.8724,-5.8733,-5.8775,-5.8798,-5.8797,-5.8802,-5.8827,-5.8851,-5.8849,-5.8858,-5.8883,-5.8875,-5.8776,-5.8761,-5.8747,-5.8733,-5.8886,-5.8886,-5.8977,-5.8978,-5.8979]},{"header":{"parameterUnit":"m.s-1","parameterCategory":1,"la1":30.2991,"la2":30.254,"lo1":-89.0895,"lo2":-89.0444,"dy":0.0017,"dx":0.0017,"nx":28,"ny":28,"refTime":"2025-01-03T03:00:00:Z","depth":0,"parameterNumber":3,"parameterNumberName":"V-component_of_WINDS"},"data":[0,0,0,0,0,0,0,0,0,0,0,0,0,0,0,0,0,0,0,0,0,0,0,0,0,0,0,0,0,0,0,0,0,0,0,0,0,0,0,0,0,0,0,0,0,0,0,0,0,0,0,0,0,0,0,0,0,0,1.3616,1.3618,0,1.3798,1.38,1.3802,1.3808,1.3806,1.3804,1.3802,1.3987,1.3994,1.4001,0,0,0,0,0,0,0,0,0,0,0,0,0,1.3276,1.3282,1.3616,1.3618,1.362,1.3798,1.38,1.3803,1.3809,1.3806,1.3804,1.3801,1.3985,1.3993,1.4002,0,0,0,0,0,0,0,0,0,0,0,0,0,1.3437,1.3284,1.3615,1.3645,1.3649,1.3797,1.38,1.3804,1.3809,1.3806,1.3803,1.38,1.3982,1.3993,1.4003,1.4134,0,0,1.4035,1.4039,0,0,0,0,0,0,0,0,1.3428,1.345,1.3638,1.3643,1.3648,1.3777,1.3749,1.3914,1.381,1.3748,1.3802,1.3798,1.392,1.3935,1.3977,1.4142,1.415,1.4036,1.4042,1.4047,1.405,0,0,0,0,0,0,0,1.3417,1.3442,1.3688,1.3641,1.3647,1.365,1.3669,1.378,1.385,1.3754,1.3755,1.3776,1.3922,1.3967,1.3981,1.4153,1.4036,1.4045,1.4051,1.4055,1.4442,1.4446,0,0,0,0,0,0,1.34,1.3432,1.3682,1.3693,1.3528,1.3659,1.368,1.3739,1.3849,1.3863,1.3779,1.3776,1.395,1.3969,1.3988,1.4153,1.4047,1.4056,1.4062,1.4438,1.4443,1.4447,0,0,0,0,0,0,1.3392,1.3422,1.3675,1.3563,1.3596,1.3668,1.3734,1.3744,1.3789,1.3868,1.3881,1.3811,1.3949,1.3973,1.4099,1.4159,1.4061,1.4071,1.4434,1.444,1.4445,1.448,0,0,0,0,0,0,1.3382,1.3419,1.3468,1.3564,1.3602,1.3782,1.3738,1.375,1.3807,1.3805,1.3902,1.3915,1.3948,1.4083,1.411,1.4172,1.4079,1.4428,1.4436,1.4443,1.4474,1.4487,1.4498,0,0,0,0,0,1.337,1.3469,1.3471,1.3501,1.3665,1.3785,1.3806,1.3843,1.3812,1.3863,1.3915,1.3912,1.4148,1.4096,1.4126,1.4192,1.4425,1.4434,1.4443,1.4469,1.4484,1.4497,0,0,0,0,0,0,1.3376,1.3482,1.3485,1.3617,1.3693,1.3786,1.3851,1.3857,1.3941,1.3936,1.3977,1.3999,1.4125,1.4171,1.4111,1.4328,1.4283,1.4298,1.4293,1.4308,1.432,1.4307,1.4088,0,0,0,0,0,1.3393,1.3482,1.3569,1.3678,1.3716,1.3777,1.3831,1.3853,1.3932,1.3964,1.4024,1.4102,1.4194,1.4253,1.4342,1.4481,1.4505,1.4542,1.4553,1.4563,1.4576,1.4658,1.4677,1.4477,1.4477,1.4477,0,0,1.3428,1.3497,1.355,1.3681,1.3742,1.3835,1.3804,1.3901,1.3972,1.3978,1.4102,1.415,1.4239,1.4374,1.4436,1.4416,1.4637,1.4574,1.4581,1.4589,1.4669,1.4688,1.4705,1.4483,1.4482,1.4481,0,0,1.354,1.36,1.37,1.3763,1.3856,1.3898,1.3922,1.4016,1.4049,1.4175,1.4184,1.4268,1.4424,1.4489,1.4543,1.4687,1.4689,1.4715,1.4776,1.4856,1.4872,1.4886,1.4942,1.4961,1.4727,1.4728,1.4728,0,1.3572,1.3711,1.375,1.385,1.391,1.3923,1.4027,1.4085,1.4203,1.4244,1.422,1.4422,1.4482,1.4635,1.4671,1.4712,1.4744,1.4704,1.4867,1.4881,1.4895,1.4949,1.4969,1.473,1.473,1.473,1.4729,0,1.3748,1.3846,1.3915,1.4032,1.4099,1.4199,1.4256,1.4319,1.4337,1.4382,1.4513,1.4587,1.4694,1.4731,1.4748,1.4889,1.4874,1.4858,1.4814,1.4917,1.4968,1.4988,1.4734,1.4733,1.4733,1.4732,0,0,1.3865,1.4006,1.4031,1.4087,1.4194,1.4271,1.4375,1.4481,1.4537,1.4619,1.4709,1.4845,1.4833,1.4894,1.4919,1.4989,1.5104,1.4965,1.4968,1.4991,1.5269,1.5282,1.5305,1.5106,1.511,1.5114,1.5263,0,1.3992,1.4177,1.4218,1.4378,1.4471,1.4488,1.4579,1.4656,1.4702,1.4789,1.4839,1.4937,1.4911,1.4949,1.5019,1.5075,1.5161,1.5065,1.5193,1.5197,1.5172,1.5331,1.5343,1.548,1.5283,1.5286,1.5288,0,1.4162,1.4252,1.4422,1.4524,1.4564,1.4645,1.4749,1.4831,1.4921,1.495,1.5021,1.504,1.5152,1.5103,1.526,1.5194,1.5249,1.5285,1.5292,1.5306,1.5249,1.5352,1.5524,1.5546,1.5319,1.5317,1.5315,0,1.4236,1.4399,1.4523,1.457,1.4689,1.4747,1.48,1.4886,1.495,1.5041,1.5083,1.5185,1.5242,1.5322,1.537,1.5329,1.5524,1.5478,1.5553,1.5553,1.5594,1.5591,1.578,1.5626,1.5626,1.5625,1.5625,0,1.4373,1.4477,1.4559,1.4635,1.4754,1.4802,1.4919,1.4971,1.5049,1.5138,1.5159,1.5242,1.5299,1.5391,1.5429,1.5556,1.558,1.5609,1.5618,1.5608,1.5605,1.5646,1.5638,1.5631,1.563,1.5628,1.5628,0,1.4474,1.4532,1.467,1.4774,1.4803,1.4887,1.4977,1.5053,1.5102,1.5215,1.5244,1.532,1.543,1.5486,1.5622,1.5648,1.5792,1.5794,1.5762,1.5767,1.584,1.5834,1.6064,1.6098,1.5919,1.592,1.5922,0,1.4559,1.464,1.4755,1.4817,1.4872,1.4971,1.5037,1.5089,1.5157,1.5269,1.5333,1.5445,1.5537,1.5713,1.5781,1.5887,1.5894,1.5967,1.5909,1.5899,1.5899,1.5894,1.5905,1.5977,1.5979,1.598,1.5982,0,1.4704,1.4731,1.4826,1.4933,1.5013,1.5099,1.5184,1.5234,1.53,1.5376,1.5491,1.5562,1.5705,1.5817,1.5929,1.5985,1.5996,1.6,1.6024,1.6015,1.5995,1.6011,1.5793,1.5994,1.5993,1.5992,1.5991,1.5991,1.4802,1.4878,1.4972,1.5079,1.515,1.5231,1.531,1.537,1.5466,1.5587,1.5612,1.5735,1.5828,1.598,1.604,1.6138,1.6122,1.6155,1.6164,1.6172,1.6178,1.5978,1.6158,1.6157,1.6157,1.6157,1.6157,0,1.4952,1.5015,1.5113,1.5234,1.532,1.5324,1.5421,1.5492,1.56,1.5686,1.5778,1.5913,1.6023,1.6102,1.6215,1.6279,1.6287,1.6307,1.6304,1.6317,1.6183,1.6153,1.6299,1.6299,1.6299,1.6299,1.6299,1.6298,1.504,1.517,1.5209,1.5376,1.5438,1.5559,1.5615,1.5691,1.5761,1.5911,1.6003,1.6055,1.614,1.626,1.6363,1.6384,1.6426,1.6446,1.6467,1.6341,1.6326,1.6312,1.6284,1.6454,1.6455,1.6594,1.6595,1.6596]}]]